TimePST,TemperatureF,Dew PointF,Humidity,Sea Level PressureIn,VisibilityMPH,Wind Direction,Wind SpeedMPH,Gust SpeedMPH,PrecipitationIn,Events,Conditions,WindDirDegrees,DateUTC
12:56 AM,30.0,25.0,82,30.26,10.0,WNW,5.8,-,N/A,,Clear,300,2011-11-08 08:56:00
1:56 AM,28.0,23.0,81,30.27,10.0,Calm,Calm,-,N/A,,Clear,0,2011-11-08 09:56:00
2:56 AM,30.0,24.1,79,30.27,10.0,Calm,Calm,-,N/A,,Clear,0,2011-11-08 10:56:00
3:56 AM,28.9,23.0,78,30.27,10.0,Calm,Calm,-,N/A,,Clear,0,2011-11-08 11:56:00
4:56 AM,25.0,21.0,85,30.30,10.0,Calm,Calm,-,N/A,,Clear,0,2011-11-08 12:56:00
5:56 AM,23.0,18.0,81,30.32,10.0,Calm,Calm,-,N/A,,Clear,0,2011-11-08 13:56:00
6:56 AM,25.0,21.0,85,30.34,10.0,Calm,Calm,-,N/A,,Clear,0,2011-11-08 14:56:00
7:56 AM,32.0,25.0,75,30.35,10.0,Calm,Calm,-,N/A,,Clear,0,2011-11-08 15:56:00
8:56 AM,39.0,28.0,65,30.36,10.0,Calm,Calm,-,N/A,,Clear,0,2011-11-08 16:56:00
9:56 AM,46.0,30.0,54,30.35,10.0,Calm,Calm,-,N/A,,Clear,0,2011-11-08 17:56:00
10:56 AM,50.0,28.9,44,30.34,10.0,Calm,Calm,-,N/A,,Clear,0,2011-11-08 18:56:00
11:56 AM,54.0,27.0,35,30.31,10.0,Calm,Calm,-,N/A,,Clear,0,2011-11-08 19:56:00
12:56 PM,57.9,21.9,25,30.29,10.0,ENE,8.1,-,N/A,,Clear,70,2011-11-08 20:56:00
1:56 PM,57.9,21.0,24,30.27,10.0,Calm,Calm,-,N/A,,Clear,0,2011-11-08 21:56:00
2:56 PM,59.0,19.9,22,30.26,10.0,Variable,4.6,-,N/A,,Clear,0,2011-11-08 22:56:00
3:56 PM,57.9,19.9,23,30.27,10.0,ENE,10.4,-,N/A,,Clear,60,2011-11-08 23:56:00
4:56 PM,53.1,19.9,27,30.28,10.0,NE,5.8,-,N/A,,Clear,50,2011-11-09 00:56:00
5:56 PM,44.1,19.0,37,30.32,10.0,NE,6.9,-,N/A,,Clear,40,2011-11-09 01:56:00
6:56 PM,44.1,21.0,40,30.32,10.0,Calm,Calm,-,N/A,,Clear,0,2011-11-09 02:56:00
7:56 PM,41.0,19.9,43,30.35,10.0,Calm,Calm,-,N/A,,Clear,0,2011-11-09 03:56:00
8:56 PM,36.0,16.0,44,30.38,10.0,Calm,Calm,-,N/A,,Clear,0,2011-11-09 04:56:00
9:56 PM,33.1,18.0,54,30.38,10.0,Calm,Calm,-,N/A,,Clear,0,2011-11-09 05:56:00
10:56 PM,28.9,15.1,56,30.38,10.0,NNW,4.6,-,N/A,,Clear,330,2011-11-09 06:56:00
11:56 PM,28.9,16.0,58,30.38,8.0,West,6.9,-,N/A,,Clear,280,2011-11-09 07:56:00